Belize, Belize

3:08 PM CST on March 25, 2017 (GMT -0600)
Philip S W Goldson International

Weather History for MZBZ - March, 2014

Change the Weather History Date:

Tuesday, March 18, 2014

  Actual Average Record
Temperature  
Mean Temperature 74 °F -  
Max Temperature 82 °F 86 °F 98 °F (2003)
Min Temperature 67 °F 72 °F 67 °F (2014)
Cooling Degree Days 10    
Growing Degree Days 24 (Base 50)    
Moisture  
Dew Point 63 °F    
Average Humidity 65    
Maximum Humidity 100    
Minimum Humidity 41    
Precipitation  
Precipitation 0.00 in 0.07 in - ()
Sea Level Pressure  
Sea Level Pressure 29.95 in    
Wind  
Wind Speed 6 mph ()    
Max Wind Speed 9 mph    
Max Gust Speed -    
Visibility 8.4 miles    
Events      
Averages and records for this station are not official NWS values.
T = Trace of Precipitation, MM = Missing Value Source: Averaged Metar Reports

Daily Weather History Graph

Daily Weather History Graph

Search for Another Location

Airport or City:

Trip Planner

Search our weather history database for the weather conditions in past years. The results will help you decide how hot, cold, wet, or windy it might be!

Date:

Astronomy

Mar. 18, 2014 Rise Set
Actual Time 5:58 AM CST 6:03 PM CST
Civil Twilight 5:37 AM CST 6:25 PM CST
Nautical Twilight 5:12 AM CST 6:50 PM CST
Astronomical Twilight 4:46 AM CST 7:15 PM CST
Moon 7:57 PM CST (3/18) 7:07 AM CST (3/18)
Length of Visible Light 12h 48m
Length of Day
12h 04m
Waning Gibbous, 96% of the Moon is Illuminated
Mar 18
Waning Gibbous
Mar 23
Last Quarter
Mar 30
New
Apr 7
First Quarter
Apr 15
Full

Hourly Weather History & Observations

Time (CST) Temp. Heat Index Dew Point Humidity Pressure Visibility Wind Dir Wind Speed Gust Speed Precip Events Conditions
3:00 AM 69 °F - 63 °F 77% 29.92 in 12 mi WNW 9.2 mph - -   Partly Cloudy
5:00 AM 68.0 °F - 62.6 °F 83% 29.94 in 6.2 mi WNW 3.5 mph - N/A   Mostly Cloudy
6:00 AM 69 °F - 63 °F 77% 29.97 in 12 mi WNW 5.8 mph - -   Mostly Cloudy
6:00 AM 68.0 °F - 62.6 °F 83% 29.96 in 6.2 mi WNW 5.8 mph - N/A   Mostly Cloudy
7:00 AM 69.8 °F - 62.6 °F 78% 29.98 in 6.2 mi WNW 8.1 mph - N/A   Mostly Cloudy
8:00 AM 69.8 °F - 62.6 °F 78% 30.01 in 6.2 mi WNW 9.2 mph - N/A   Mostly Cloudy
9:00 AM 72 °F - 62 °F 64% 30.01 in 12 mi NW 8.1 mph - -   Mostly Cloudy
9:00 AM 71.6 °F - 62.6 °F 73% 30.01 in 6.2 mi NW 8.1 mph - N/A   Mostly Cloudy
10:00 AM 73.4 °F - 60.8 °F 65% 30.01 in 6.2 mi NNW 6.9 mph - N/A   Mostly Cloudy
11:00 AM 77.0 °F - 60.8 °F 57% 29.99 in 6.2 mi NNW 4.6 mph - N/A   Mostly Cloudy
12:00 PM 79 °F - 60 °F 43% 29.97 in 14 mi NW 5.8 mph - -   Mostly Cloudy
12:00 PM 78.8 °F - 60.8 °F 54% 29.97 in 6.2 mi NW 5.8 mph - N/A   Mostly Cloudy
1:00 PM 78.8 °F - 60.8 °F 54% 29.94 in 6.2 mi Calm Calm - N/A   Scattered Clouds
2:00 PM 82.4 °F 82.9 °F 60.8 °F 48% 29.90 in 6.2 mi NNW 3.5 mph - N/A   Partly Cloudy
3:00 PM 82 °F - 62 °F 41% 29.89 in 14 mi SSW 3.5 mph - -   Scattered Clouds
3:00 PM 82.4 °F 83.4 °F 62.6 °F 51% 29.88 in 6.2 mi SSW 3.5 mph - N/A   Partly Cloudy
4:00 PM 80.6 °F 81.8 °F 62.6 °F 54% 29.89 in 6.2 mi East 8.1 mph - N/A   Partly Cloudy
5:00 PM 78.8 °F - 64.4 °F 61% 29.89 in 6.2 mi East 8.1 mph - N/A   Partly Cloudy
6:00 PM 76 °F - 64 °F 58% 29.92 in 11 mi East 6.9 mph - -   Clear
6:00 PM 77.0 °F - 64.4 °F 65% 29.91 in - East 6.9 mph - N/A   Clear
7:00 PM 75.2 °F - 60.8 °F 61% 29.93 in - ESE 5.8 mph - N/A   Clear
9:00 PM 72 °F - 72 °F 100% 29.97 in 12 mi ESE 3.5 mph - -   Clear